Printer-friendly version
Follow the MPC on Twitter Follow the MPC on Facebook The MPC blog
Minor Planet Center

MPEC 2008-T35 : 2008 TC1

The following Minor Planet Electronic Circular may be linked-to from your own Web pages, but must not otherwise be redistributed electronically.

A form allowing access to any MPEC is at the bottom of this page.


Read MPEC 2008-T34 Read MPEC 2008-T36


M.P.E.C. 2008-T35                                Issued 2008 Oct. 3, 17:05 UT

     The Minor Planet Electronic Circulars contain information on unusual
         minor planets and routine data on comets.  They are published
   on behalf of Commission 20 of the International Astronomical Union by the
          Minor Planet Center, Smithsonian Astrophysical Observatory,
                          Cambridge, MA 02138, U.S.A.

             Prepared using the Tamkin Foundation Computer Network

                              MPC@CFA.HARVARD.EDU
          URL http://www.cfa.harvard.edu/iau/mpc.html  ISSN 1523-6714

                                   2008 TC1

Observations:
     K08T01C* C2008 10 02.27118 23 34 49.62 -02 48 31.1          20.8 V ET035G96
     K08T01C  C2008 10 02.27868 23 34 51.81 -02 48 43.1          20.6 V ET035G96
     K08T01C  C2008 10 02.28617 23 34 54.08 -02 48 55.8          21.5 V ET035G96
     K08T01C  C2008 10 02.29369 23 34 56.28 -02 49 08.1          21.5 V ET035G96
     K08T01C  C2008 10 02.34371 23 35 11.14 -02 50 29.9          20.9 V ET035G96
     K08T01C  C2008 10 02.35212 23 35 13.63 -02 50 43.3          21.0 V ET035G96
     K08T01C  C2008 10 02.36051 23 35 16.15 -02 50 57.3          20.8 V ET035G96
     K08T01C  C2008 10 02.36895 23 35 18.63 -02 51 11.0          20.6 V ET035G96
     K08T01C  C2008 10 03.19150 23 39 31.61 -03 12 35.3          22.0 V ET035G96
     K08T01C  C2008 10 03.19240 23 39 31.90 -03 12 36.5          21.0 V ET035G96
     K08T01C  C2008 10 03.20164 23 39 34.46 -03 12 50.3          20.6 V ET035G96
     K08T01C tC2008 10 03.22661 23 39 41.31 -03 13 27.6          21.3 V ET035291
     K08T01C tC2008 10 03.23032 23 39 42.29 -03 13 32.7          21.6 V ET035291
     K08T01C tC2008 10 03.23404 23 39 43.27 -03 13 38.6          21.6 V ET035291
     K08T01C  C2008 10 03.30021 23 40 01.04 -03 15 17.6          20.6 R ET035H01
     K08T01C  C2008 10 03.30764 23 40 03.06 -03 15 28.5          20.4 R ET035H01
     K08T01C  C2008 10 03.31409 23 40 04.82 -03 15 38.3          20.9 R ET035H01

Observer details:
291 LPL/Spacewatch II.  Observer T. H. Bressi.  1.8-m f/2.7 reflector + CCD.
G96 Mt. Lemmon Survey.  Observer R. E. Hill.  Measurers E. C. Beshore,
    A. Boattini, G. J. Garradd, A. R. Gibbs, A. D. Grauer, R. E. Hill,
    R. A. Kowalski, S. M. Larson, R. H. McNaught.  1.5-m reflector + CCD.
H01 Magdalena Ridge Observatory, Socorro.  Observer W. H. Ryan.  2.4-m f/8.9
    reflector + CCD.

Orbital elements:
2008 TC1                                                 Earth MOID = 0.0515 AU
Epoch 2008 Nov. 30.0 TT = JDT 2454800.5                 MPC
M  34.86490              (2000.0)            P               Q
n   0.31793298     Peri.  120.45166     +0.60915160     +0.79287161
a   2.1260770      Node   187.14920     -0.76638421     +0.58301940
e   0.5561916      Incl.    7.85023     -0.20393523     +0.17732171
P   3.10           H   24.0           G   0.15           U   8
Residuals in seconds of arc
081002 G96  0.1+  0.1-    081002 G96  0.2+  0.1-    081003 291  0.1-  0.2+
081002 G96  0.4-  0.2+    081002 G96  0.3-  0.1-    081003 291  0.5-  0.2-
081002 G96  0.4+  0.1-    081003 G96  0.4-  0.0     081003 H01  0.1+  0.2+
081002 G96  0.1-  0.1-    081003 G96  0.3+  0.2+    081003 H01  0.1+  0.2+
081002 G96  0.1+  0.0     081003 G96  0.7+  0.2+    081003 H01  0.2+  0.1-
081002 G96  0.1-  0.3+    081003 291  0.4+  0.2-

Ephemeris:
2008 TC1                 a,e,i = 2.13, 0.56, 8                   q = 0.9436
Date    TT    R. A. (2000) Decl.     Delta      r     Elong.  Phase     V
2008 10 01    23 27.71   -02 10.4    0.141    1.137   163.6    14.4    20.8
2008 10 06    23 51.72   -04 12.1    0.179    1.172   163.2    14.3    21.4
2008 10 11    00 07.99   -05 21.7    0.219    1.208   160.9    15.7    22.0
2008 10 16    00 19.78   -05 59.1    0.263    1.244   158.0    17.4    22.5
2008 10 21    00 28.89   -06 14.9    0.309    1.282   154.9    19.2    23.0

Sonia Keys                   (C) Copyright 2008 MPC           M.P.E.C. 2008-T35

Read MPEC 2008-T34 Read MPEC 2008-T36


MPEC number:

Enter an MPEC number in one of the following forms:

  • 1997-B01 (the full form)
  • J97B01 (the packed version of the full form)
  • B01 (the abbreviated form)

Valid HTML 4.01!